Weather History for Greenville Downtown, SC

Change the Weather History Date:

Tuesday, July 2, 2013

  Actual Average Record
Temperature  
Mean Temperature 76 °F -  
Max Temperature 82 °F 86 °F 101 °F (1993)
Min Temperature 71 °F 67 °F 62 °F (2007)
Cooling Degree Days 12    
Growing Degree Days 26 (Base 50)    
Moisture  
Dew Point 70 °F    
Average Humidity 87    
Maximum Humidity 94    
Minimum Humidity 66    
Precipitation  
Precipitation 1.31 in - - ()
Sea Level Pressure  
Sea Level Pressure 30.06 in    
Wind  
Wind Speed 5 mph (SSE)    
Max Wind Speed 14 mph    
Max Gust Speed 17 mph    
Visibility 8 miles    
Events Fog , Rain    
Averages and records for this station are not official NWS values.
T = Trace of Precipitation, MM = Missing Value Source: NWS Daily Summary

Daily Weather History Graph

Daily Weather History Graph

Search for Another Location

Airport:

Trip Planner

Search our weather history database for the weather conditions in past years. The results will help you decide how hot, cold, wet, or windy it might be!

Date:

Astronomy

Jul. 02, 2013 Rise Set
Actual Time 6:20 AM EDT 8:46 PM EDT
Civil Twilight 5:50 AM EDT 9:16 PM EDT
Nautical Twilight 5:14 AM EDT 9:52 PM EDT
Astronomical Twilight 4:34 AM EDT 10:32 PM EDT
Moon 2:15 AM EDT (7/2) 4:05 PM EDT (7/2)
Length of Visible Light 15h 25m
Length of Day
14h 26m
Waning Crescent, 26% of the Moon is Illuminated
Jul 2
Waning Crescent
Jul 8
New
Jul 15
First Quarter
Jul 22
Full
Jul 29
Last Quarter

Hourly Weather History & Observations

Time (EDT) Temp. Heat Index Dew Point Humidity Pressure Visibility Wind Dir Wind Speed Gust Speed Precip Events Conditions
12:53 AM 71.1 °F - 68.0 °F 90% 29.97 in 10.0 mi Calm Calm - 0.03 in   Overcast
1:01 AM 71.6 °F - 68.0 °F 88% 30.00 in 10.0 mi Calm Calm - 0.01 in   Overcast
1:53 AM 71.1 °F - 68.0 °F 90% 29.97 in 10.0 mi Calm Calm - 0.03 in   Mostly Cloudy
2:00 AM 71.6 °F - 66.2 °F 83% 30.00 in 10.0 mi Calm Calm - 0.01 in   Mostly Cloudy
2:10 AM 71.6 °F - 68.0 °F 88% 30.00 in 10.0 mi Calm Calm - 0.01 in   Mostly Cloudy
2:53 AM 72.0 °F - 66.9 °F 84% 29.96 in 10.0 mi East 3.5 mph - 0.04 in   Overcast
3:26 AM 71.6 °F - 66.2 °F 83% 30.00 in 10.0 mi Calm Calm - 0.01 in   Overcast
3:53 AM 72.0 °F - 68.0 °F 87% 29.96 in 10.0 mi SSE 3.5 mph - 0.02 in   Overcast
4:53 AM 72.0 °F - 70.0 °F 93% 29.97 in 10.0 mi South 6.9 mph - 0.02 in   Overcast
5:13 AM 71.6 °F - 69.8 °F 94% 30.01 in 10.0 mi South 5.8 mph - 0.01 in   Overcast
5:53 AM 72.0 °F - 70.0 °F 93% 29.99 in 10.0 mi South 6.9 mph - 0.01 in   Overcast
6:09 AM 71.6 °F - 69.8 °F 94% 30.02 in 10.0 mi South 5.8 mph - 0.01 in   Overcast
6:27 AM 71.6 °F - 69.8 °F 94% 30.03 in 10.0 mi South 6.9 mph - 0.01 in   Overcast
6:37 AM 71.6 °F - 69.8 °F 94% 30.03 in 10.0 mi South 8.1 mph - 0.01 in   Overcast
6:53 AM 72.0 °F - 70.0 °F 93% 30.01 in 10.0 mi South 6.9 mph - 0.01 in   Overcast
7:01 AM 71.6 °F - 69.8 °F 94% 30.04 in 1.8 mi South 9.2 mph - 0.00 in Rain Heavy Rain
7:35 AM 71.6 °F - 69.8 °F 94% 30.05 in 2.5 mi SSW 6.9 mph - N/A Rain Rain
7:37 AM 71.6 °F - 69.8 °F 94% 30.05 in 3.0 mi SSW 6.9 mph - N/A Rain Light Rain
7:53 AM 72.0 °F - 69.1 °F 91% 30.03 in 10.0 mi SW 4.6 mph - N/A Rain Light Rain
8:24 AM 71.6 °F - 69.8 °F 94% 30.06 in 4.0 mi South 10.4 mph - 0.07 in Rain Heavy Rain
8:35 AM 71.6 °F - 69.8 °F 94% 30.06 in 10.0 mi SW 4.6 mph - 0.10 in Rain Light Rain
8:53 AM 72.0 °F - 70.0 °F 93% 30.04 in 10.0 mi SSW 6.9 mph - 0.14 in   Overcast
9:00 AM 71.6 °F - 69.8 °F 94% 30.07 in 10.0 mi South 6.9 mph - 0.02 in   Overcast
9:19 AM 73.4 °F - 69.8 °F 88% 30.08 in 10.0 mi SSW 6.9 mph - 0.06 in   Overcast
10:35 AM 73.4 °F - 69.8 °F 88% 30.08 in 10.0 mi South 5.8 mph - 0.07 in   Overcast
10:53 AM 75.0 °F - 69.1 °F 82% 30.05 in 10.0 mi South 8.1 mph - 0.10 in   Overcast
11:09 AM 75.2 °F - 69.8 °F 83% 30.08 in 10.0 mi South 5.8 mph - 0.03 in Rain Light Rain
11:14 AM 73.4 °F - 69.8 °F 88% 30.09 in 8.0 mi South 8.1 mph - 0.03 in Rain Light Rain
11:25 AM 71.6 °F - 69.8 °F 94% 30.09 in 2.0 mi SW 8.1 mph - 0.05 in Rain Rain
11:27 AM 71.6 °F - 69.8 °F 94% 30.09 in 1.5 mi WSW 9.2 mph - 0.05 in Rain Heavy Rain
11:32 AM 71.6 °F - 69.8 °F 94% 30.09 in 0.5 mi SSW 5.8 mph 17.3 mph 0.06 in Fog , Rain Heavy Rain
11:41 AM 71.6 °F - 69.8 °F 94% 30.09 in 1.0 mi South 13.8 mph - 0.07 in Rain Heavy Rain
11:53 AM 71.1 °F - 69.1 °F 93% 30.07 in 1.0 mi SE 9.2 mph - 0.09 in Rain Heavy Rain
12:03 PM 71.6 °F - 69.8 °F 94% 30.09 in 3.0 mi SE 6.9 mph - 0.02 in Rain Light Rain
12:18 PM 71.6 °F - 69.8 °F 94% 30.09 in 10.0 mi South 4.6 mph - 0.04 in   Overcast
12:53 PM 77.0 °F - 71.1 °F 82% 30.06 in 10.0 mi South 8.1 mph - 0.09 in   Mostly Cloudy
1:12 PM 77.0 °F - 71.6 °F 83% 30.08 in 10.0 mi SSE 10.4 mph - 0.03 in   Mostly Cloudy
1:19 PM 77.0 °F - 71.6 °F 83% 30.08 in 10.0 mi SE 10.4 mph - 0.04 in   Mostly Cloudy
1:49 PM 77.0 °F - 69.8 °F 78% 30.08 in 10.0 mi SE 9.2 mph - 0.73 in   Scattered Clouds
1:53 PM 77.0 °F - 71.1 °F 82% 30.05 in 10.0 mi SSE 8.1 mph - 0.73 in   Scattered Clouds
2:53 PM 79.0 °F - 70.0 °F 74% 30.04 in 10.0 mi SE 9.2 mph - N/A   Mostly Cloudy
3:49 PM 82.4 °F 86.3 °F 69.8 °F 66% 30.07 in 10.0 mi SSE 11.5 mph - N/A   Mostly Cloudy
3:53 PM 81.0 °F 84.1 °F 69.1 °F 67% 30.04 in 10.0 mi SSE 11.5 mph - N/A   Scattered Clouds
4:53 PM 80.1 °F 82.9 °F 69.1 °F 69% 30.04 in 10.0 mi SE 12.7 mph - N/A   Partly Cloudy
5:53 PM 81.0 °F 84.1 °F 69.1 °F 67% 30.04 in 10.0 mi SSE 13.8 mph - N/A   Partly Cloudy
6:53 PM 78.1 °F - 70.0 °F 76% 30.06 in 10.0 mi SE 9.2 mph - N/A   Partly Cloudy
7:53 PM 77.0 °F - 69.1 °F 76% 30.08 in 10.0 mi SE 10.4 mph - N/A   Scattered Clouds
8:03 PM 77.0 °F - 69.8 °F 78% 30.11 in 10.0 mi SSE 8.1 mph - N/A   Mostly Cloudy
8:33 PM 75.2 °F - 69.8 °F 83% 30.12 in 10.0 mi SSE 9.2 mph - N/A   Scattered Clouds
8:53 PM 75.0 °F - 70.0 °F 84% 30.10 in 10.0 mi ESE 5.8 mph - N/A   Scattered Clouds
9:07 PM 75.2 °F - 69.8 °F 83% 30.13 in 10.0 mi ESE 5.8 mph - N/A   Mostly Cloudy
9:53 PM 75.0 °F - 70.0 °F 84% 30.11 in 10.0 mi ESE 4.6 mph - N/A   Overcast
10:13 PM 73.4 °F - 69.8 °F 88% 30.15 in 10.0 mi SE 5.8 mph - N/A   Overcast
10:53 PM 73.9 °F - 70.0 °F 87% 30.13 in 10.0 mi ESE 6.9 mph - N/A   Overcast
11:07 PM 73.4 °F - 69.8 °F 88% 30.16 in 10.0 mi ESE 8.1 mph - N/A   Overcast
11:53 PM 73.0 °F - 70.0 °F 90% 30.14 in 10.0 mi ESE 3.5 mph - N/A   Overcast